Weather Roundup
Issued by NWS

Home | Current Version | Previous Version | Text Only | Print | Product List | Glossary On
Versions: 1 2 3 4 5 6 7 8 9 10 11 12 13 14 15 16 17 18 19 20 21 22 23 24 25 26 27 28 29 30 31 32 33 34 35 36 37 38 39 40 41 42 43 44 45 46 47 48 49 50
000
NZUS93 KARX 301810
HRRWXR

CURRENT HOURLY OBSERVATIONS ACROSS
MUCH OF THE UPPER MISSISSIPPI VALLEY
NATIONAL WEATHER SERVICE LA CROSSE WI
100 PM CDT FRI SEP 30 2016


...SOUTHEAST MINNESOTA...


CITY           SKY/WX    TMP DP  RH WIND       PRES   REMARKS
ROCHESTER      SUNNY     68  53  58 NE12      30.29F
ROCHESTER/MAYO NOT AVBL
WINONA         SUNNY     70  54  56 N3        30.27F
AUSTIN         MOSUNNY   70  54  56 NE9       30.27F
ALBERT LEA     MOSUNNY   68  52  56 NE7       30.28
DODGE CENTER   SUNNY     70  50  49 NE10G16   30.29F
PRESTON        PTSUNNY   65  52  60 E10G16    30.28F HAZE
OWATONNA       MOSUNNY   70  52  52 NE10      30.29F
FARIBAULT      SUNNY     70  52  52 NE8       30.30F
$$

...ELSEWHERE IN MINNESOTA...


CITY           SKY/WX    TMP DP  RH WIND       PRES   REMARKS
MINNEAPOLIS    SUNNY     66  53  63 N10       30.32F
INTNL FALLS    CLOUDY    51  50  96 SE8       30.41F
DULUTH         MOSUNNY   57  51  80 SE12      30.41F
RED WING       SUNNY     72  48  43 NE8       30.28F
REDWOOD FALLS  SUNNY     67  52  58 CALM      30.31F
MANKATO        SUNNY     67  52  58 NE13      30.30F
WORTHINGTON    SUNNY     67  49  52 E8        30.30F
FAIRMONT       SUNNY     69  49  48 NE7       30.29F
$$

...SOUTHWEST WISCONSIN...


CITY           SKY/WX    TMP DP  RH WIND       PRES   REMARKS
LA CROSSE      CLOUDY    68  56  65 E7        30.26F
PRAIRIE DU CHI CLOUDY    63  54  73 N8        30.24F
BOSCOBEL       CLOUDY    63  56  78 VRB6      30.24F
LONE ROCK      CLOUDY    62  56  80 NE12      30.23F
PLATTEVILLE    CLOUDY    61  58  92 N12       30.22F
FORT MC COY    CLOUDY    64  56  75 E6        30.27F
CAMP DOUGLAS   CLOUDY    63  57  82 E9        30.26F
MAUSTON-NEW LI NOT AVBL
VIROQUA        CLOUDY    60  55  82 NE12G17   30.26F
WIS DELLS      CLOUDY    60  55  85 NE14      30.24F
$$

...ELSEWHERE IN WISCONSIN...


CITY           SKY/WX    TMP DP  RH WIND       PRES   REMARKS
MILWAUKEE      CLOUDY    63  59  87 NE13      30.19F
MADISON        DRIZZLE   61  58  90 NE14      30.21F
GREEN BAY      CLOUDY    62  59  90 NE17      30.27F
EAU CLAIRE     MOSUNNY   68  50  52 NE9       30.29F
BLACK RVR FLS  MOCLDY    70  52  52 E6G16     30.26F
MEDFORD        PTSUNNY   68  46  44 E13G20    30.30F HAZE
WAUSAU         MOSUNNY   69  50  50 E10G20    30.28F
WIS RAPIDS     PTSUNNY   66  54  65 E14G21    30.28F
MARSHFIELD     MOSUNNY   69  50  50 E10       30.27F
RICE LAKE      SUNNY     68  49  51 NE8       30.34F
$$

...NORTHEAST IOWA...


CITY           SKY/WX    TMP DP  RH WIND       PRES   REMARKS
WATERLOO       CLOUDY    63  54  72 NE12      30.24F
DUBUQUE        CLOUDY    60  56  86 N10       30.21F
DECORAH        CLOUDY    61  55  82 NE8G15    30.26F
MASON CITY     CLOUDY    67  53  61 NE10G18   30.28F
CHARLES CITY   CLOUDY    64  55  72 E13       30.26F
OELWEIN        CLOUDY    63  55  77 NE15      30.25F
$$

...ELSEWHERE IN IOWA...


CITY           SKY/WX    TMP DP  RH WIND       PRES   REMARKS
DES MOINES     CLOUDY    64  53  67 N10       30.24F
IOWA CITY      CLOUDY    63  56  78 N13       30.22F
FORT DODGE     CLOUDY    68  55  64 E12       30.27F
MARSHALLTOWN   CLOUDY    64  55  72 NE10      30.23F
CEDAR RAPIDS   CLOUDY    62  57  83 NE8       30.21F
$$

...NORTHERN ILLINOIS...


CITY           SKY/WX    TMP DP  RH WIND       PRES   REMARKS
CHICAGO-OHARE  CLOUDY    64  59  83 NE12      30.12F
CHICAGO-MIDWAY CLOUDY    65  59  81 NE18      30.11F
MOLINE         CLOUDY    65  56  72 NE9       30.17F
ROCKFORD       LGT RAIN  66  58  75 NE18      30.18R
PEORIA         CLOUDY    62  62 100 N6        30.12F
$$

NOTE: "FAIR" INDICATES FEW OR NO CLOUDS BELOW 12,000 FEET WITH NO
SIGNIFICANT WEATHER AND/OR OBSTRUCTIONS TO VISIBILITY. WIND
SPEEDS ARE IN MILES-PER-HOUR.




USA.gov is the U.S. government's official web portal to all federal, state and local government web resources and services.